[[{"header":{"parameterUnit":"m.s-1","parameterCategory":1,"la1":30.2991,"la2":30.254,"lo1":-89.0895,"lo2":-89.0444,"dy":0.0017,"dx":0.0017,"nx":28,"ny":28,"refTime":"2025-01-10T09:00:00:Z","depth":0,"parameterNumber":2,"parameterNumberName":"U-component_of_WINDS"},"data":[0,0,0,0,0,0,0,0,0,0,0,0,0,0,0,0,0,0,0,0,0,0,0,0,0,0,0,0,0,0,0,0,0,0,0,0,0,0,0,0,0,0,0,0,0,0,0,0,0,0,0,0,0,0,0,0,0,0,-6.3872,-6.3872,0,-6.3911,-6.3912,-6.3912,-6.3723,-6.3718,-6.3712,-6.3707,-6.375,-6.3756,-6.3762,0,0,0,0,0,0,0,0,0,0,0,0,0,-6.3633,-6.3639,-6.3872,-6.3872,-6.3873,-6.3911,-6.3912,-6.3912,-6.3724,-6.3718,-6.3711,-6.3705,-6.3748,-6.3755,-6.3763,0,0,0,0,0,0,0,0,0,0,0,0,0,-6.3712,-6.3641,-6.3871,-6.3783,-6.3776,-6.3911,-6.3912,-6.3912,-6.3726,-6.3718,-6.3709,-6.3702,-6.3746,-6.3755,-6.3764,-6.3986,0,0,-6.3793,-6.3797,0,0,0,0,0,0,0,0,-6.3707,-6.3721,-6.3796,-6.379,-6.3782,-6.3804,-6.3843,-6.3937,-6.3728,-6.3745,-6.3707,-6.3698,-6.3775,-6.3781,-6.3807,-6.3988,-6.399,-6.3793,-6.3799,-6.3803,-6.3806,0,0,0,0,0,0,0,-6.3702,-6.3718,-6.3887,-6.3797,-6.3788,-6.3742,-6.3744,-6.386,-6.3806,-6.3743,-6.3729,-6.3736,-6.3769,-6.3798,-6.3806,-6.3991,-6.3793,-6.3801,-6.3807,-6.3811,-6.4355,-6.4363,0,0,0,0,0,0,-6.3708,-6.3715,-6.3886,-6.3888,-6.3723,-6.3753,-6.3755,-6.3805,-6.3804,-6.3796,-6.3743,-6.3727,-6.3786,-6.3796,-6.3807,-6.4066,-6.3803,-6.3812,-6.3817,-6.4346,-6.4357,-6.4367,0,0,0,0,0,0,-6.3704,-6.3725,-6.3884,-6.3798,-6.3814,-6.3766,-6.3823,-6.381,-6.3839,-6.3804,-6.3793,-6.3783,-6.378,-6.3794,-6.3943,-6.4065,-6.3816,-6.3825,-6.4336,-6.435,-6.4362,-6.4588,0,0,0,0,0,0,-6.3698,-6.3725,-6.3809,-6.3801,-6.382,-6.402,-6.3831,-6.3817,-6.3855,-6.3835,-6.3838,-6.3831,-6.3775,-6.393,-6.3952,-6.4074,-6.3832,-6.4325,-6.4342,-6.4358,-6.457,-6.4608,-6.464,0,0,0,0,0,-6.369,-6.3872,-6.3814,-6.3836,-6.3924,-6.4027,-6.4038,-6.3969,-6.3866,-6.395,-6.3927,-6.3831,-6.4048,-6.3947,-6.397,-6.4097,-6.4317,-6.4337,-6.4356,-6.4554,-6.46,-6.4639,0,0,0,0,0,0,-6.3897,-6.387,-6.3805,-6.399,-6.4012,-6.3995,-6.4099,-6.402,-6.4073,-6.4052,-6.3964,-6.3966,-6.413,-6.4128,-6.4015,-6.4311,-6.4165,-6.419,-6.4307,-6.435,-6.4385,-6.4382,-6.384,0,0,0,0,0,-6.3964,-6.405,-6.4021,-6.4187,-6.4201,-6.4149,-6.4192,-6.4136,-6.4156,-6.4165,-6.4153,-6.4176,-6.4249,-6.4299,-6.4365,-6.4568,-6.4565,-6.4666,-6.4702,-6.4731,-6.4754,-6.486,-6.4904,-6.4432,-6.4432,-6.4431,0,0,-6.4104,-6.4099,-6.4159,-6.4229,-6.4239,-6.433,-6.4158,-6.4262,-6.4329,-6.418,-6.432,-6.4312,-6.4332,-6.4509,-6.4586,-6.4512,-6.4884,-6.4756,-6.4779,-6.4787,-6.4885,-6.493,-6.497,-6.4445,-6.4443,-6.4441,0,0,-6.4405,-6.441,-6.4548,-6.4562,-6.458,-6.4543,-6.4577,-6.4572,-6.456,-6.4699,-6.4589,-6.4667,-6.4795,-6.4813,-6.484,-6.5146,-6.5059,-6.517,-6.5354,-6.5459,-6.5496,-6.5528,-6.5637,-6.5677,-6.5193,-6.5194,-6.5194,0,-6.4576,-6.4708,-6.4629,-6.474,-6.4774,-6.4642,-6.4781,-6.4799,-6.4838,-6.4864,-6.478,-6.4937,-6.4942,-6.512,-6.5195,-6.5221,-6.5256,-6.5169,-6.5497,-6.5529,-6.5558,-6.5661,-6.5702,-6.5207,-6.5205,-6.5204,-6.5203,0,-6.4918,-6.5012,-6.5121,-6.5161,-6.5206,-6.5331,-6.5271,-6.5327,-6.5267,-6.524,-6.5381,-6.5382,-6.5444,-6.5482,-6.5426,-6.5653,-6.5606,-6.5512,-6.5363,-6.5618,-6.5713,-6.5751,-6.5226,-6.5221,-6.5217,-6.5214,0,0,-6.5352,-6.5345,-6.5387,-6.5402,-6.5412,-6.5482,-6.5601,-6.5661,-6.571,-6.5742,-6.5838,-6.5949,-6.586,-6.589,-6.5834,-6.5926,-6.6168,-6.5819,-6.5818,-6.5884,-6.6418,-6.6489,-6.6536,-6.611,-6.6117,-6.6123,-6.6416,0,-6.5646,-6.5847,-6.5779,-6.5984,-6.6068,-6.5944,-6.6047,-6.6064,-6.6041,-6.611,-6.6084,-6.6164,-6.6041,-6.6058,-6.6144,-6.6121,-6.6274,-6.6098,-6.6199,-6.6204,-6.6199,-6.6586,-6.6662,-6.6939,-6.6452,-6.6459,-6.6463,0,-6.6017,-6.6061,-6.6275,-6.6268,-6.6301,-6.6395,-6.6444,-6.6511,-6.6527,-6.6504,-6.6537,-6.6461,-6.6576,-6.6427,-6.6585,-6.6467,-6.6504,-6.6499,-6.6508,-6.6515,-6.635,-6.6604,-6.7025,-6.7067,-6.6521,-6.6516,-6.6512,0,-6.6311,-6.6425,-6.6566,-6.6584,-6.658,-6.6649,-6.665,-6.6658,-6.6698,-6.6741,-6.6766,-6.6823,-6.6854,-6.6899,-6.684,-6.6737,-6.7007,-6.6853,-6.699,-6.6992,-6.7053,-6.705,-6.7487,-6.7078,-6.7077,-6.7076,-6.7076,0,-6.6647,-6.6783,-6.6698,-6.6786,-6.6933,-6.6853,-6.7001,-6.6989,-6.6997,-6.708,-6.6976,-6.7056,-6.6972,-6.7045,-6.6999,-6.7136,-6.7151,-6.7136,-6.7122,-6.7145,-6.7147,-6.7168,-6.7148,-6.7087,-6.7085,-6.7083,-6.7081,0,-6.7002,-6.6951,-6.7097,-6.7081,-6.7079,-6.7189,-6.7175,-6.7255,-6.7224,-6.733,-6.735,-6.7302,-6.7381,-6.7327,-6.7407,-6.7376,-6.7555,-6.7515,-6.755,-6.7539,-6.768,-6.7667,-6.8146,-6.8204,-6.7758,-6.7762,-6.7766,0,-6.7219,-6.732,-6.7314,-6.7362,-6.737,-6.7448,-6.7488,-6.7412,-6.7458,-6.7484,-6.7561,-6.7631,-6.7683,-6.7816,-6.7788,-6.7848,-6.7808,-6.7972,-6.7817,-6.7836,-6.781,-6.7805,-6.7814,-6.8003,-6.8009,-6.8013,-6.8016,0,-6.7611,-6.7581,-6.7642,-6.7695,-6.7745,-6.7783,-6.7813,-6.7858,-6.7781,-6.7838,-6.7918,-6.7958,-6.8038,-6.811,-6.8159,-6.816,-6.8077,-6.8065,-6.81,-6.8125,-6.8141,-6.8134,-6.7635,-6.8055,-6.8051,-6.8048,-6.8046,-6.8045,-6.7903,-6.7987,-6.7995,-6.8067,-6.8081,-6.8111,-6.8184,-6.8162,-6.8227,-6.8286,-6.8237,-6.8332,-6.8344,-6.8402,-6.8413,-6.8486,-6.8419,-6.8471,-6.8483,-6.8497,-6.8517,-6.8129,-6.8495,-6.8494,-6.8493,-6.8492,-6.8491,0,-6.8289,-6.8288,-6.8355,-6.8399,-6.8455,-6.837,-6.8398,-6.8451,-6.8535,-6.8553,-6.8606,-6.8697,-6.8765,-6.8742,-6.8802,-6.8865,-6.8828,-6.8883,-6.8878,-6.888,-6.8573,-6.8537,-6.8912,-6.8912,-6.8912,-6.8912,-6.8912,-6.8912,-6.8497,-6.8633,-6.8603,-6.8745,-6.8742,-6.8834,-6.8857,-6.8884,-6.8898,-6.9004,-6.9059,-6.9043,-6.9045,-6.9104,-6.9163,-6.9154,-6.9181,-6.9251,-6.9229,-6.8943,-6.8901,-6.8862,-6.8827,-6.9257,-6.9258,-6.9528,-6.9531,-6.9533]},{"header":{"parameterUnit":"m.s-1","parameterCategory":1,"la1":30.2991,"la2":30.254,"lo1":-89.0895,"lo2":-89.0444,"dy":0.0017,"dx":0.0017,"nx":28,"ny":28,"refTime":"2025-01-10T09:00:00:Z","depth":0,"parameterNumber":3,"parameterNumberName":"V-component_of_WINDS"},"data":[0,0,0,0,0,0,0,0,0,0,0,0,0,0,0,0,0,0,0,0,0,0,0,0,0,0,0,0,0,0,0,0,0,0,0,0,0,0,0,0,0,0,0,0,0,0,0,0,0,0,0,0,0,0,0,0,0,0,-2.2619,-2.2619,0,-2.2639,-2.2639,-2.2639,-2.2626,-2.2625,-2.2625,-2.2624,-2.2643,-2.2644,-2.2645,0,0,0,0,0,0,0,0,0,0,0,0,0,-2.2565,-2.2566,-2.2619,-2.2619,-2.2619,-2.2639,-2.2639,-2.2639,-2.2626,-2.2625,-2.2625,-2.2624,-2.2642,-2.2643,-2.2645,0,0,0,0,0,0,0,0,0,0,0,0,0,-2.2587,-2.2566,-2.2619,-2.2615,-2.2615,-2.2639,-2.2639,-2.2639,-2.2626,-2.2625,-2.2624,-2.2624,-2.2642,-2.2643,-2.2645,-2.2672,0,0,-2.265,-2.265,0,0,0,0,0,0,0,0,-2.2586,-2.2589,-2.2615,-2.2615,-2.2615,-2.2629,-2.2627,-2.265,-2.2626,-2.2622,-2.2624,-2.2623,-2.2639,-2.264,-2.2646,-2.2673,-2.2674,-2.265,-2.2651,-2.2651,-2.2652,0,0,0,0,0,0,0,-2.2584,-2.2588,-2.2626,-2.2616,-2.2616,-2.2611,-2.2613,-2.2631,-2.2635,-2.2622,-2.2621,-2.2624,-2.2638,-2.2645,-2.2646,-2.2674,-2.265,-2.2651,-2.2652,-2.2653,-2.2721,-2.2722,0,0,0,0,0,0,-2.2583,-2.2587,-2.2626,-2.2627,-2.2598,-2.2613,-2.2615,-2.2625,-2.2635,-2.2635,-2.2625,-2.2623,-2.2642,-2.2645,-2.2647,-2.2677,-2.2651,-2.2653,-2.2654,-2.272,-2.2721,-2.2722,0,0,0,0,0,0,-2.2582,-2.2587,-2.2625,-2.2607,-2.2611,-2.2615,-2.2626,-2.2626,-2.2632,-2.2637,-2.2637,-2.2631,-2.2642,-2.2645,-2.2665,-2.2678,-2.2654,-2.2655,-2.2719,-2.272,-2.2722,-2.2739,0,0,0,0,0,0,-2.2581,-2.2587,-2.2599,-2.2607,-2.2612,-2.2645,-2.2627,-2.2627,-2.2635,-2.2634,-2.2642,-2.2643,-2.2641,-2.2663,-2.2667,-2.2679,-2.2656,-2.2718,-2.272,-2.2721,-2.2738,-2.2741,-2.2744,0,0,0,0,0,-2.2579,-2.2603,-2.2599,-2.2604,-2.2627,-2.2645,-2.2648,-2.2647,-2.2637,-2.2647,-2.2649,-2.2642,-2.2676,-2.2665,-2.267,-2.2683,-2.2717,-2.2719,-2.2721,-2.2736,-2.2741,-2.2744,0,0,0,0,0,0,-2.2596,-2.2604,-2.26,-2.2628,-2.2636,-2.2643,-2.2657,-2.2652,-2.2662,-2.266,-2.2657,-2.2659,-2.268,-2.2684,-2.2672,-2.2708,-2.2695,-2.2698,-2.2705,-2.2709,-2.2712,-2.271,-2.2657,0,0,0,0,0,-2.2603,-2.2618,-2.2624,-2.2648,-2.2652,-2.2654,-2.2662,-2.266,-2.2668,-2.2671,-2.2675,-2.2682,-2.2694,-2.2702,-2.2713,-2.2738,-2.2738,-2.2749,-2.2752,-2.2755,-2.2757,-2.2767,-2.2771,-2.2729,-2.2729,-2.2729,0,0,-2.2618,-2.2624,-2.2634,-2.2652,-2.2658,-2.2672,-2.2657,-2.2673,-2.2683,-2.2673,-2.2692,-2.2695,-2.2703,-2.2725,-2.2735,-2.2729,-2.2769,-2.2757,-2.2759,-2.276,-2.277,-2.2774,-2.2777,-2.273,-2.273,-2.273,0,0,-2.2651,-2.2659,-2.2678,-2.2684,-2.2693,-2.2693,-2.2698,-2.2705,-2.2706,-2.2726,-2.2718,-2.2729,-2.275,-2.2755,-2.276,-2.2791,-2.2784,-2.2795,-2.2812,-2.2822,-2.2825,-2.2828,-2.2837,-2.284,-2.2798,-2.2798,-2.2798,0,-2.2668,-2.269,-2.2688,-2.2704,-2.2711,-2.2702,-2.272,-2.2726,-2.2738,-2.2742,-2.2735,-2.2759,-2.2764,-2.2785,-2.2793,-2.2798,-2.2801,-2.2794,-2.2825,-2.2828,-2.283,-2.2839,-2.2842,-2.2799,-2.2799,-2.2799,-2.2798,0,-2.2709,-2.2724,-2.2738,-2.2749,-2.2757,-2.2774,-2.2773,-2.2782,-2.2778,-2.2778,-2.2796,-2.2802,-2.2812,-2.2817,-2.2815,-2.2838,-2.2833,-2.2826,-2.2812,-2.2836,-2.2843,-2.2847,-2.28,-2.28,-2.28,-2.2799,0,0,-2.2755,-2.2763,-2.2768,-2.2771,-2.2779,-2.279,-2.2805,-2.2816,-2.2822,-2.283,-2.2841,-2.2857,-2.2849,-2.2855,-2.2853,-2.2862,-2.2883,-2.2853,-2.2853,-2.2856,-2.2906,-2.291,-2.2914,-2.2879,-2.2879,-2.288,-2.2904,0,-2.2787,-2.2814,-2.2811,-2.2836,-2.2848,-2.2839,-2.2851,-2.2856,-2.2857,-2.2866,-2.2866,-2.2877,-2.2867,-2.287,-2.2879,-2.2879,-2.2893,-2.2877,-2.2887,-2.2887,-2.2884,-2.2918,-2.2924,-2.2947,-2.2907,-2.2908,-2.2908,0,-2.2828,-2.2836,-2.2862,-2.2865,-2.287,-2.2882,-2.2889,-2.2899,-2.2904,-2.2903,-2.2908,-2.2903,-2.2916,-2.2903,-2.2919,-2.2908,-2.2912,-2.2913,-2.2913,-2.2913,-2.2898,-2.2917,-2.2954,-2.2957,-2.2914,-2.2913,-2.2913,0,-2.2855,-2.2873,-2.289,-2.2894,-2.2899,-2.2906,-2.2909,-2.2912,-2.2918,-2.2924,-2.2927,-2.2935,-2.2939,-2.2945,-2.2941,-2.2932,-2.2957,-2.2944,-2.2955,-2.2955,-2.296,-2.2959,-2.2996,-2.2965,-2.2965,-2.2965,-2.2965,0,-2.289,-2.2906,-2.2902,-2.2912,-2.2928,-2.2924,-2.294,-2.2941,-2.2944,-2.2953,-2.2946,-2.2954,-2.295,-2.2957,-2.2954,-2.2966,-2.2969,-2.2967,-2.2966,-2.2967,-2.2967,-2.2969,-2.2966,-2.2966,-2.2966,-2.2965,-2.2965,0,-2.2923,-2.2922,-2.2939,-2.2942,-2.2942,-2.2954,-2.2955,-2.2964,-2.2963,-2.2974,-2.2976,-2.2975,-2.2983,-2.298,-2.2989,-2.2986,-2.3002,-2.2999,-2.3,-2.2999,-2.3009,-2.3007,-2.3047,-2.3051,-2.3019,-2.3019,-2.3019,0,-2.2945,-2.2956,-2.2959,-2.2965,-2.2967,-2.2976,-2.2981,-2.2977,-2.2982,-2.2987,-2.2994,-2.3002,-2.3007,-2.302,-2.3019,-2.3025,-2.3021,-2.3035,-2.3022,-2.3022,-2.3019,-2.3018,-2.3018,-2.3037,-2.3037,-2.3038,-2.3038,0,-2.2982,-2.298,-2.2988,-2.2995,-2.3,-2.3006,-2.301,-2.3015,-2.301,-2.3016,-2.3024,-2.3028,-2.3036,-2.3043,-2.3048,-2.3049,-2.3042,-2.3042,-2.3044,-2.3045,-2.3044,-2.3042,-2.3005,-2.3041,-2.304,-2.304,-2.304,-2.304,-2.3009,-2.3017,-2.302,-2.3028,-2.303,-2.3034,-2.3041,-2.304,-2.3047,-2.3053,-2.305,-2.3059,-2.306,-2.3066,-2.3067,-2.3073,-2.3068,-2.3072,-2.3073,-2.3073,-2.3074,-2.3044,-2.3074,-2.3074,-2.3074,-2.3074,-2.3074,0,-2.3043,-2.3044,-2.3052,-2.3057,-2.3063,-2.3056,-2.306,-2.3064,-2.3072,-2.3075,-2.308,-2.3087,-2.3093,-2.3092,-2.3096,-2.3101,-2.3098,-2.3102,-2.3101,-2.3101,-2.3079,-2.3076,-2.3105,-2.3105,-2.3105,-2.3105,-2.3105,-2.3105,-2.3062,-2.3075,-2.3073,-2.3086,-2.3087,-2.3095,-2.3097,-2.31,-2.3101,-2.311,-2.3115,-2.3114,-2.3114,-2.3118,-2.3123,-2.3122,-2.3123,-2.3128,-2.3126,-2.3106,-2.3103,-2.31,-2.3096,-2.3129,-2.3129,-2.3147,-2.3147,-2.3148]}]]